Time,TemperatureF,DewpointF,PressureIn,WindDirection,WindDirectionDegrees,WindSpeedMPH,WindSpeedGustMPH,Humidity,HourlyPrecipIn,Conditions,Clouds,dailyrainin,SolarRadiationWatts/m^2,SoftwareType,DateUTC
2013-10-20 00:02:00,42.4,40.5,30.12,SSW,209,0.0,0.0,93,0.00,CLR,,0.00,0.0,WeatherDisplay:10.37,2013-10-20 05:02:00,
2013-10-20 00:07:00,42.0,40.1,30.11,SSW,209,0.0,0.0,93,0.00,CLR,,0.00,0.0,WeatherDisplay:10.37,2013-10-20 05:07:00,
2013-10-20 00:12:00,42.1,40.2,30.11,SSW,209,0.0,0.0,93,0.00,CLR,,0.00,0.0,WeatherDisplay:10.37,2013-10-20 05:12:00,
2013-10-20 00:17:00,41.9,40.0,30.11,SSW,209,0.0,0.0,93,0.00,CLR,,0.00,0.0,WeatherDisplay:10.37,2013-10-20 05:17:00,
2013-10-20 00:22:00,41.7,39.8,30.11,SSW,209,0.0,0.0,93,0.00,CLR,,0.00,0.0,WeatherDisplay:10.37,2013-10-20 05:22:00,
2013-10-20 00:27:00,41.8,39.9,30.11,SSW,209,0.0,0.0,93,0.00,CLR,,0.00,0.0,WeatherDisplay:10.37,2013-10-20 05:27:00,
2013-10-20 00:32:00,42.1,40.2,30.11,SSW,209,0.0,0.0,93,0.00,CLR,,0.00,0.0,WeatherDisplay:10.37,2013-10-20 05:32:00,
2013-10-20 00:37:00,42.2,40.3,30.11,SSW,209,0.0,0.0,93,0.00,CLR,,0.00,0.0,WeatherDisplay:10.37,2013-10-20 05:37:00,
2013-10-20 00:42:00,42.1,40.2,30.11,SSW,209,0.0,0.0,93,0.00,CLR,,0.00,0.0,WeatherDisplay:10.37,2013-10-20 05:42:00,
2013-10-20 00:47:00,42.0,40.1,30.10,SSW,209,0.0,0.0,93,0.00,CLR,,0.00,0.0,WeatherDisplay:10.37,2013-10-20 05:47:00,
2013-10-20 00:52:00,41.9,40.0,30.10,SSW,209,0.0,0.0,93,0.00,CLR,,0.00,0.0,WeatherDisplay:10.37,2013-10-20 05:52:00,
2013-10-20 00:57:00,41.6,39.7,30.11,SSW,209,0.0,0.0,93,0.00,CLR,,0.00,0.0,WeatherDisplay:10.37,2013-10-20 05:57:00,
2013-10-20 01:02:00,41.4,39.5,30.10,SSW,209,0.0,0.0,93,0.00,CLR,,0.00,0.0,WeatherDisplay:10.37,2013-10-20 06:02:00,
2013-10-20 01:07:00,41.5,39.6,30.10,SSW,209,0.0,0.0,93,0.00,CLR,,0.00,0.0,WeatherDisplay:10.37,2013-10-20 06:07:00,
2013-10-20 01:12:00,41.7,40.1,30.10,SSW,209,0.0,0.0,94,0.00,CLR,,0.00,0.0,WeatherDisplay:10.37,2013-10-20 06:12:00,
2013-10-20 01:17:00,42.0,40.4,30.10,SSW,209,0.0,0.0,94,0.00,CLR,,0.00,0.0,WeatherDisplay:10.37,2013-10-20 06:17:00,
2013-10-20 01:22:00,41.8,39.9,30.10,SSW,209,0.0,0.0,93,0.00,CLR,,0.00,0.0,WeatherDisplay:10.37,2013-10-20 06:22:00,
2013-10-20 01:27:00,41.8,39.9,30.10,SSW,209,0.0,0.0,93,0.00,CLR,,0.00,0.0,WeatherDisplay:10.37,2013-10-20 06:27:00,
2013-10-20 01:32:00,41.7,39.8,30.10,SSW,209,0.0,0.0,93,0.00,CLR,,0.00,0.0,WeatherDisplay:10.37,2013-10-20 06:32:00,
2013-10-20 01:37:00,41.7,39.8,30.10,SSW,209,0.0,0.0,93,0.00,CLR,,0.00,0.0,WeatherDisplay:10.37,2013-10-20 06:37:00,
2013-10-20 01:42:00,41.7,39.8,30.10,SSW,209,0.3,2.3,93,0.00,CLR,,0.00,0.0,WeatherDisplay:10.37,2013-10-20 06:42:00,
2013-10-20 01:47:00,41.9,40.0,30.10,SSW,209,0.0,0.0,93,0.00,CLR,,0.00,0.0,WeatherDisplay:10.37,2013-10-20 06:47:00,
2013-10-20 01:52:00,41.8,39.9,30.10,SSW,209,0.0,0.0,93,0.00,CLR,,0.00,0.0,WeatherDisplay:10.37,2013-10-20 06:52:00,
2013-10-20 01:57:00,41.6,39.7,30.09,SSW,209,0.0,0.0,93,0.00,CLR,,0.00,0.0,WeatherDisplay:10.37,2013-10-20 06:57:00,
2013-10-20 02:02:00,41.5,39.6,30.09,SSW,209,0.0,0.0,93,0.00,CLR,,0.00,0.0,WeatherDisplay:10.37,2013-10-20 07:02:00,
2013-10-20 02:07:00,41.5,39.6,30.09,SSW,209,0.0,0.0,93,0.00,CLR,,0.00,0.0,WeatherDisplay:10.37,2013-10-20 07:07:00,
2013-10-20 02:12:00,41.5,39.6,30.09,SSW,209,0.0,0.0,93,0.00,CLR,,0.00,0.0,WeatherDisplay:10.37,2013-10-20 07:12:00,
2013-10-20 02:17:00,41.3,39.4,30.09,SSW,209,0.0,0.0,93,0.00,CLR,,0.00,0.0,WeatherDisplay:10.37,2013-10-20 07:17:00,
2013-10-20 02:22:00,41.3,39.4,30.09,SSW,209,0.0,0.0,93,0.00,CLR,,0.00,0.0,WeatherDisplay:10.37,2013-10-20 07:22:00,
2013-10-20 02:27:00,41.5,39.6,30.09,SSW,209,0.0,0.0,93,0.00,CLR,,0.00,0.0,WeatherDisplay:10.37,2013-10-20 07:27:00,
2013-10-20 02:32:00,41.7,39.8,30.09,SSW,209,2.9,4.0,93,0.00,CLR,,0.00,0.0,WeatherDisplay:10.37,2013-10-20 07:32:00,
2013-10-20 02:37:00,41.9,40.0,30.09,SSW,209,2.1,3.5,93,0.00,CLR,,0.00,0.0,WeatherDisplay:10.37,2013-10-20 07:37:00,
2013-10-20 02:42:00,41.6,39.7,30.09,SSW,209,0.0,0.0,93,0.00,CLR,,0.00,0.0,WeatherDisplay:10.37,2013-10-20 07:42:00,
2013-10-20 02:47:00,41.4,39.5,30.09,SSW,209,0.0,0.0,93,0.00,CLR,,0.00,0.0,WeatherDisplay:10.37,2013-10-20 07:47:00,
2013-10-20 02:52:00,41.2,39.3,30.09,SSW,209,0.0,0.0,93,0.00,CLR,,0.00,0.0,WeatherDisplay:10.37,2013-10-20 07:52:00,
2013-10-20 02:57:00,41.1,39.2,30.09,SSW,209,0.0,0.0,93,0.00,CLR,,0.00,0.0,WeatherDisplay:10.37,2013-10-20 07:57:00,
2013-10-20 03:02:00,40.9,39.0,30.09,SSW,209,0.0,0.0,93,0.00,CLR,,0.00,0.0,WeatherDisplay:10.37,2013-10-20 08:02:00,
2013-10-20 03:07:00,40.7,38.8,30.08,SSW,209,0.0,0.0,93,0.00,CLR,,0.00,0.0,WeatherDisplay:10.37,2013-10-20 08:07:00,
2013-10-20 03:12:00,40.5,38.6,30.08,SSW,209,0.0,0.0,93,0.00,CLR,,0.00,0.0,WeatherDisplay:10.37,2013-10-20 08:12:00,
2013-10-20 03:17:00,40.4,38.5,30.08,SSW,209,0.0,0.0,93,0.00,CLR,,0.00,0.0,WeatherDisplay:10.37,2013-10-20 08:17:00,
2013-10-20 03:22:00,40.4,38.5,30.08,SSW,209,0.0,0.0,93,0.00,CLR,,0.00,0.0,WeatherDisplay:10.37,2013-10-20 08:22:00,
2013-10-20 03:27:00,40.3,38.4,30.08,SSW,209,0.0,0.0,93,0.00,CLR,,0.00,0.0,WeatherDisplay:10.37,2013-10-20 08:27:00,
2013-10-20 03:32:00,40.3,38.4,30.08,SSW,209,0.0,0.0,93,0.00,CLR,,0.00,0.0,WeatherDisplay:10.37,2013-10-20 08:32:00,
2013-10-20 03:37:00,40.2,38.3,30.08,SSW,209,0.0,0.0,93,0.00,CLR,,0.00,0.0,WeatherDisplay:10.37,2013-10-20 08:37:00,
2013-10-20 03:42:00,40.4,38.5,30.07,SSW,209,0.0,0.0,93,0.00,CLR,,0.00,0.0,WeatherDisplay:10.37,2013-10-20 08:42:00,
2013-10-20 03:47:00,40.2,38.6,30.07,SSW,209,0.0,0.0,94,0.00,CLR,,0.00,0.0,WeatherDisplay:10.37,2013-10-20 08:47:00,
2013-10-20 03:52:00,40.1,38.5,30.07,SSW,209,0.0,0.0,94,0.00,CLR,,0.00,0.0,WeatherDisplay:10.37,2013-10-20 08:52:00,
2013-10-20 03:57:00,40.1,38.5,30.07,SSW,209,0.0,0.0,94,0.00,CLR,,0.00,0.0,WeatherDisplay:10.37,2013-10-20 08:57:00,
2013-10-20 04:02:00,39.7,38.1,30.07,SSW,209,0.0,0.0,94,0.00,CLR,,0.00,0.0,WeatherDisplay:10.37,2013-10-20 09:02:00,
2013-10-20 04:07:00,39.5,37.9,30.07,SSW,209,0.0,0.0,94,0.00,CLR,,0.00,0.0,WeatherDisplay:10.37,2013-10-20 09:07:00,
2013-10-20 04:12:00,39.5,37.9,30.07,SSW,209,0.0,0.0,94,0.00,CLR,,0.00,0.0,WeatherDisplay:10.37,2013-10-20 09:12:00,
2013-10-20 04:17:00,39.4,37.8,30.07,SSW,209,0.0,0.0,94,0.00,CLR,,0.00,0.0,WeatherDisplay:10.37,2013-10-20 09:17:00,
2013-10-20 04:22:00,39.5,37.9,30.07,SSW,209,0.0,0.0,94,0.00,CLR,,0.00,0.0,WeatherDisplay:10.37,2013-10-20 09:22:00,
2013-10-20 04:27:00,39.3,37.7,30.07,SSW,209,0.0,0.0,94,0.00,CLR,,0.00,0.0,WeatherDisplay:10.37,2013-10-20 09:27:00,
2013-10-20 04:32:00,39.2,37.6,30.07,SSW,209,0.0,0.0,94,0.00,CLR,,0.00,0.0,WeatherDisplay:10.37,2013-10-20 09:32:00,
2013-10-20 04:37:00,39.2,37.6,30.07,SSW,209,0.3,2.3,94,0.00,CLR,,0.00,0.0,WeatherDisplay:10.37,2013-10-20 09:37:00,
2013-10-20 04:42:00,39.1,37.5,30.06,SSW,209,0.0,0.0,94,0.00,CLR,,0.00,0.0,WeatherDisplay:10.37,2013-10-20 09:42:00,
2013-10-20 04:47:00,39.0,37.4,30.06,SSW,209,0.0,0.0,94,0.00,CLR,,0.00,0.0,WeatherDisplay:10.37,2013-10-20 09:47:00,
2013-10-20 04:52:00,39.3,37.7,30.06,SSW,209,0.0,0.0,94,0.00,CLR,,0.00,0.0,WeatherDisplay:10.37,2013-10-20 09:52:00,
2013-10-20 04:57:00,39.3,37.7,30.06,SSW,209,0.0,0.0,94,0.00,CLR,,0.00,0.0,WeatherDisplay:10.37,2013-10-20 09:57:00,
2013-10-20 05:02:00,39.3,37.7,30.06,SSW,209,0.0,0.0,94,0.00,CLR,,0.00,0.0,WeatherDisplay:10.37,2013-10-20 10:02:00,
2013-10-20 05:07:00,39.2,37.6,30.06,SSW,209,0.0,0.0,94,0.00,CLR,,0.00,0.0,WeatherDisplay:10.37,2013-10-20 10:07:00,
2013-10-20 05:12:00,39.1,37.5,30.06,SSW,209,0.0,0.0,94,0.00,CLR,,0.00,0.0,WeatherDisplay:10.37,2013-10-20 10:12:00,
2013-10-20 05:17:00,39.1,37.5,30.06,SSW,209,0.0,0.0,94,0.00,CLR,,0.00,0.0,WeatherDisplay:10.37,2013-10-20 10:17:00,
2013-10-20 05:22:00,39.0,37.7,30.07,SSW,209,0.0,0.0,95,0.00,CLR,,0.00,0.0,WeatherDisplay:10.37,2013-10-20 10:22:00,
2013-10-20 05:27:00,38.8,37.2,30.06,SSW,209,0.0,0.0,94,0.00,CLR,,0.00,0.0,WeatherDisplay:10.37,2013-10-20 10:27:00,
2013-10-20 05:32:00,38.8,37.2,30.06,SSW,209,0.0,0.0,94,0.00,CLR,,0.00,0.0,WeatherDisplay:10.37,2013-10-20 10:32:00,
2013-10-20 05:37:00,38.8,37.2,30.07,SSW,209,0.0,0.0,94,0.00,CLR,,0.00,0.0,WeatherDisplay:10.37,2013-10-20 10:37:00,
2013-10-20 05:42:00,38.9,37.3,30.06,SSW,209,0.0,0.0,94,0.00,CLR,,0.00,0.0,WeatherDisplay:10.37,2013-10-20 10:42:00,
2013-10-20 05:47:00,38.7,37.4,30.06,SSW,209,0.0,0.0,95,0.00,CLR,,0.00,0.0,WeatherDisplay:10.37,2013-10-20 10:47:00,
2013-10-20 05:52:00,38.6,37.3,30.06,SSW,209,0.0,0.0,95,0.00,CLR,,0.00,0.0,WeatherDisplay:10.37,2013-10-20 10:52:00,
2013-10-20 05:57:00,38.7,37.4,30.06,SSW,209,0.0,0.0,95,0.00,CLR,,0.00,0.0,WeatherDisplay:10.37,2013-10-20 10:57:00,
2013-10-20 06:02:00,39.0,37.7,30.06,SSW,209,0.0,0.0,95,0.00,CLR,,0.00,0.0,WeatherDisplay:10.37,2013-10-20 11:02:00,
2013-10-20 06:07:00,39.1,37.8,30.06,SSW,209,0.0,0.0,95,0.00,CLR,,0.00,0.0,WeatherDisplay:10.37,2013-10-20 11:07:00,
2013-10-20 06:12:00,39.3,38.0,30.06,SSW,209,0.0,0.0,95,0.00,CLR,,0.00,0.0,WeatherDisplay:10.37,2013-10-20 11:12:00,
2013-10-20 06:17:00,39.6,38.3,30.06,SSW,209,0.0,0.0,95,0.00,CLR,,0.00,0.0,WeatherDisplay:10.37,2013-10-20 11:17:00,
2013-10-20 06:22:00,39.6,38.3,30.06,SSW,209,0.0,0.0,95,0.00,CLR,,0.00,0.0,WeatherDisplay:10.37,2013-10-20 11:22:00,
2013-10-20 06:27:00,39.4,38.1,30.06,SSW,209,0.0,0.0,95,0.00,CLR,,0.00,0.0,WeatherDisplay:10.37,2013-10-20 11:27:00,
2013-10-20 06:32:00,39.0,37.7,30.06,SSW,209,0.0,0.0,95,0.00,CLR,,0.00,0.0,WeatherDisplay:10.37,2013-10-20 11:32:00,
2013-10-20 06:37:00,38.5,37.2,30.06,SSW,209,0.0,0.0,95,0.00,CLR,,0.00,0.0,WeatherDisplay:10.37,2013-10-20 11:37:00,
2013-10-20 06:42:00,38.4,37.1,30.06,SSW,209,0.0,0.0,95,0.00,CLR,,0.00,0.0,WeatherDisplay:10.37,2013-10-20 11:42:00,
2013-10-20 06:47:00,38.5,37.2,30.06,SSW,209,0.0,0.0,95,0.00,CLR,,0.00,0.0,WeatherDisplay:10.37,2013-10-20 11:47:00,
2013-10-20 06:52:00,38.6,37.3,30.06,SSW,209,0.0,0.0,95,0.00,CLR,,0.00,0.0,WeatherDisplay:10.37,2013-10-20 11:52:00,
2013-10-20 06:57:00,38.6,37.3,30.06,SSW,209,0.0,0.0,95,0.00,CLR,,0.00,0.0,WeatherDisplay:10.37,2013-10-20 11:57:00,
2013-10-20 07:02:00,38.6,37.3,30.06,SSW,209,0.0,0.0,95,0.00,CLR,,0.00,0.0,WeatherDisplay:10.37,2013-10-20 12:02:00,
2013-10-20 07:07:00,38.6,37.3,30.06,SSW,209,0.0,0.0,95,0.00,CLR,,0.00,0.0,WeatherDisplay:10.37,2013-10-20 12:07:00,
2013-10-20 07:12:00,38.6,37.3,30.06,SSW,209,0.0,0.0,95,0.00,CLR,,0.00,0.0,WeatherDisplay:10.37,2013-10-20 12:12:00,
2013-10-20 07:17:00,38.6,37.3,30.06,SSW,209,0.0,0.0,95,0.00,CLR,,0.00,0.0,WeatherDisplay:10.37,2013-10-20 12:17:00,
2013-10-20 07:22:00,38.3,37.0,30.06,SSW,209,0.0,0.0,95,0.00,CLR,,0.00,0.0,WeatherDisplay:10.37,2013-10-20 12:22:00,
2013-10-20 07:27:00,38.3,37.0,30.06,SSW,209,0.0,0.0,95,0.00,CLR,,0.00,0.0,WeatherDisplay:10.37,2013-10-20 12:27:00,
2013-10-20 07:32:00,38.2,36.9,30.06,SSW,209,0.0,0.0,95,0.00,CLR,,0.00,0.0,WeatherDisplay:10.37,2013-10-20 12:32:00,
2013-10-20 07:37:00,38.2,36.9,30.06,SSW,209,0.0,0.0,95,0.00,CLR,,0.00,0.0,WeatherDisplay:10.37,2013-10-20 12:37:00,
2013-10-20 07:42:00,38.2,36.9,30.06,SSW,209,0.0,0.0,95,0.00,CLR,,0.00,5.5,WeatherDisplay:10.37,2013-10-20 12:42:00,
2013-10-20 07:47:00,38.1,36.8,30.06,SSW,209,0.0,0.0,95,0.00,CLR,,0.00,7.7,WeatherDisplay:10.37,2013-10-20 12:47:00,
2013-10-20 07:52:00,38.2,36.9,30.06,SSW,209,0.0,0.0,95,0.00,CLR,,0.00,9.9,WeatherDisplay:10.37,2013-10-20 12:52:00,
2013-10-20 07:57:00,38.5,37.2,30.06,SSW,209,0.0,0.0,95,0.00,CLR,,0.00,12.1,WeatherDisplay:10.37,2013-10-20 12:57:00,
2013-10-20 08:02:00,38.7,37.4,30.06,SSW,209,0.0,0.0,95,0.00,CLR,,0.00,13.2,WeatherDisplay:10.37,2013-10-20 13:02:00,
2013-10-20 08:07:00,38.6,37.3,30.07,SSW,209,0.0,0.0,95,0.00,CLR,,0.00,17.6,WeatherDisplay:10.37,2013-10-20 13:07:00,
2013-10-20 08:12:00,39.0,37.7,30.06,SSW,209,0.0,0.0,95,0.00,CLR,,0.00,19.8,WeatherDisplay:10.37,2013-10-20 13:12:00,
2013-10-20 08:17:00,39.7,38.4,30.07,SSW,209,0.0,0.0,95,0.00,CLR,,0.00,20.9,WeatherDisplay:10.37,2013-10-20 13:17:00,
2013-10-20 08:22:00,40.2,38.9,30.07,SSW,209,0.0,0.0,95,0.00,CLR,,0.00,23.1,WeatherDisplay:10.37,2013-10-20 13:22:00,
2013-10-20 08:27:00,40.7,39.4,30.07,SSW,209,0.0,0.0,95,0.00,CLR,,0.00,25.3,WeatherDisplay:10.37,2013-10-20 13:27:00,
2013-10-20 08:32:00,41.2,39.9,30.07,SSW,209,0.0,0.0,95,0.00,CLR,,0.00,27.5,WeatherDisplay:10.37,2013-10-20 13:32:00,
2013-10-20 08:37:00,42.0,40.7,30.07,SSW,209,0.0,0.0,95,0.00,CLR,,0.00,27.5,WeatherDisplay:10.37,2013-10-20 13:37:00,
2013-10-20 08:42:00,43.2,41.9,30.07,SSW,209,0.5,1.2,95,0.00,CLR,,0.00,28.6,WeatherDisplay:10.37,2013-10-20 13:42:00,
2013-10-20 08:47:00,44.5,43.2,30.07,SSW,209,0.3,0.0,95,0.00,CLR,,0.00,30.8,WeatherDisplay:10.37,2013-10-20 13:47:00,
2013-10-20 08:52:00,45.4,44.1,30.07,SSW,209,0.2,1.2,95,0.00,CLR,,0.00,30.8,WeatherDisplay:10.37,2013-10-20 13:52:00,
2013-10-20 08:57:00,46.3,44.7,30.07,SSW,209,0.0,1.2,94,0.00,CLR,,0.00,33.0,WeatherDisplay:10.37,2013-10-20 13:57:00,
2013-10-20 09:02:00,47.3,45.7,30.07,SSW,209,2.0,4.6,94,0.00,CLR,,0.00,35.2,WeatherDisplay:10.37,2013-10-20 14:02:00,
2013-10-20 09:07:00,48.1,45.9,30.07,SSW,202,1.9,4.6,92,0.00,CLR,,0.00,35.2,WeatherDisplay:10.37,2013-10-20 14:07:00,
2013-10-20 09:12:00,48.8,46.3,30.07,South,174,3.5,5.8,91,0.00,CLR,,0.00,50.6,WeatherDisplay:10.37,2013-10-20 14:12:00,
2013-10-20 09:17:00,49.4,46.0,30.07,South,172,2.9,5.0,88,0.00,CLR,,0.00,59.4,WeatherDisplay:10.37,2013-10-20 14:17:00,
2013-10-20 09:22:00,50.1,46.4,30.07,SSE,151,3.6,11.5,87,0.00,CLR,,0.00,166.1,WeatherDisplay:10.37,2013-10-20 14:22:00,
2013-10-20 09:27:00,50.7,46.4,30.07,SSE,151,1.3,4.0,85,0.00,CLR,,0.00,313.5,WeatherDisplay:10.37,2013-10-20 14:27:00,
2013-10-20 09:32:00,51.4,46.7,30.07,SSE,160,2.8,5.8,84,0.00,CLR,,0.00,326.7,WeatherDisplay:10.37,2013-10-20 14:32:00,
2013-10-20 09:37:00,51.8,46.2,30.07,SSE,159,3.6,5.8,81,0.00,CLR,,0.00,344.3,WeatherDisplay:10.37,2013-10-20 14:37:00,
2013-10-20 09:42:00,52.3,46.6,30.07,SSE,157,2.5,9.2,81,0.00,CLR,,0.00,359.7,WeatherDisplay:10.37,2013-10-20 14:42:00,
2013-10-20 09:47:00,52.8,47.1,30.07,SSE,156,2.6,6.9,81,0.00,CLR,,0.00,377.3,WeatherDisplay:10.37,2013-10-20 14:47:00,
2013-10-20 09:52:00,53.3,47.0,30.07,SSE,155,3.4,5.8,79,0.00,CLR,,0.00,392.7,WeatherDisplay:10.37,2013-10-20 14:52:00,
2013-10-20 09:57:00,53.5,46.8,30.07,SSE,156,2.7,5.8,78,0.00,CLR,,0.00,410.3,WeatherDisplay:10.37,2013-10-20 14:57:00,
2013-10-20 10:02:00,54.0,47.3,30.07,SSE,154,5.3,9.2,78,0.00,CLR,,0.00,425.7,WeatherDisplay:10.37,2013-10-20 15:02:00,
2013-10-20 10:07:00,54.3,47.2,30.07,SSE,168,3.1,8.1,77,0.00,CLR,,0.00,456.5,WeatherDisplay:10.37,2013-10-20 15:07:00,
2013-10-20 10:12:00,54.6,47.5,30.07,SSE,154,4.1,9.2,77,0.00,CLR,,0.00,474.1,WeatherDisplay:10.37,2013-10-20 15:12:00,
2013-10-20 10:17:00,55.3,47.9,30.06,SSE,152,5.8,11.5,76,0.00,CLR,,0.00,489.5,WeatherDisplay:10.37,2013-10-20 15:17:00,
2013-10-20 10:22:00,55.9,48.4,30.06,South,177,4.8,10.4,76,0.00,CLR,,0.00,507.1,WeatherDisplay:10.37,2013-10-20 15:22:00,
2013-10-20 10:27:00,56.1,47.6,30.06,SSE,158,3.6,5.8,73,0.00,CLR,,0.00,522.5,WeatherDisplay:10.37,2013-10-20 15:27:00,
2013-10-20 10:32:00,56.8,48.2,30.06,SSE,155,3.1,8.1,73,0.00,CLR,,0.00,537.9,WeatherDisplay:10.37,2013-10-20 15:32:00,
2013-10-20 10:37:00,57.0,48.4,30.06,SSE,149,1.4,6.0,73,0.00,CLR,,0.00,551.1,WeatherDisplay:10.37,2013-10-20 15:37:00,
2013-10-20 10:42:00,57.9,48.6,30.06,SSE,150,5.5,5.8,71,0.00,CLR,,0.00,563.2,WeatherDisplay:10.37,2013-10-20 15:42:00,
2013-10-20 10:47:00,58.6,48.8,30.06,SSE,152,4.1,10.4,70,0.00,CLR,,0.00,578.6,WeatherDisplay:10.37,2013-10-20 15:47:00,
2013-10-20 10:52:00,59.4,49.2,30.06,SSE,155,5.2,11.5,69,0.00,CLR,,0.00,589.6,WeatherDisplay:10.37,2013-10-20 15:52:00,
2013-10-20 10:57:00,59.8,48.4,30.06,South,181,5.0,13.8,66,0.00,CLR,,0.00,605.0,WeatherDisplay:10.37,2013-10-20 15:57:00,
2013-10-20 11:02:00,60.4,48.2,30.06,SSE,168,2.7,6.9,64,0.00,CLR,,0.00,619.3,WeatherDisplay:10.37,2013-10-20 16:02:00,
2013-10-20 11:07:00,60.8,48.1,30.06,South,187,6.9,8.1,63,0.00,CLR,,0.00,630.3,WeatherDisplay:10.37,2013-10-20 16:07:00,
2013-10-20 11:12:00,61.1,48.0,30.06,SSE,156,8.3,12.7,62,0.00,CLR,,0.00,640.2,WeatherDisplay:10.37,2013-10-20 16:12:00,
2013-10-20 11:17:00,61.5,47.5,30.05,SSE,164,4.5,10.4,60,0.00,CLR,,0.00,647.9,WeatherDisplay:10.37,2013-10-20 16:17:00,
2013-10-20 11:22:00,61.5,47.0,30.05,SSE,158,10.0,11.5,59,0.00,CLR,,0.00,661.1,WeatherDisplay:10.37,2013-10-20 16:22:00,
2013-10-20 11:27:00,61.7,47.2,30.05,SSE,154,9.9,13.8,59,0.00,CLR,,0.00,668.8,WeatherDisplay:10.37,2013-10-20 16:27:00,
2013-10-20 11:32:00,61.9,47.0,30.05,SSE,156,6.3,11.5,58,0.00,CLR,,0.00,683.1,WeatherDisplay:10.37,2013-10-20 16:32:00,
2013-10-20 11:36:00,62.3,47.3,30.04,South,171,5.6,12.7,58,0.00,CLR,,0.00,690.8,WeatherDisplay:10.37,2013-10-20 16:36:00,
2013-10-20 11:41:00,62.6,47.1,30.04,SSE,154,10.4,17.3,57,0.00,CLR,,0.00,698.5,WeatherDisplay:10.37,2013-10-20 16:41:00,
2013-10-20 11:46:00,63.6,46.6,30.04,SSE,149,5.4,8.1,54,0.00,CLR,,0.00,711.7,WeatherDisplay:10.37,2013-10-20 16:46:00,
2013-10-20 11:51:00,63.8,45.8,30.04,SSE,157,8.4,11.5,52,0.00,CLR,,0.00,717.2,WeatherDisplay:10.37,2013-10-20 16:51:00,
2013-10-20 11:56:00,63.6,46.1,30.03,SSE,165,4.4,9.2,53,0.00,CLR,,0.00,727.1,WeatherDisplay:10.37,2013-10-20 16:56:00,
2013-10-20 12:01:00,64.0,46.5,30.03,SSE,153,5.8,16.1,53,0.00,CLR,,0.00,734.8,WeatherDisplay:10.37,2013-10-20 17:01:00,
2013-10-20 12:06:00,64.1,47.1,30.03,SE,146,4.4,6.9,54,0.00,CLR,,0.00,740.3,WeatherDisplay:10.37,2013-10-20 17:06:00,
2013-10-20 12:11:00,64.4,45.9,30.03,SSE,153,6.6,11.5,51,0.00,CLR,,0.00,744.7,WeatherDisplay:10.37,2013-10-20 17:11:00,
2013-10-20 12:16:00,64.9,45.8,30.02,SSE,153,5.9,6.9,50,0.00,CLR,,0.00,754.6,WeatherDisplay:10.37,2013-10-20 17:16:00,
2013-10-20 12:21:00,64.8,46.2,30.02,SSW,197,6.2,11.0,51,0.00,CLR,,0.00,757.9,WeatherDisplay:10.37,2013-10-20 17:21:00,
2013-10-20 12:26:00,65.0,46.9,30.02,South,188,5.4,12.7,52,0.00,CLR,,0.00,765.6,WeatherDisplay:10.37,2013-10-20 17:26:00,
2013-10-20 12:31:00,65.4,46.3,30.01,SSE,152,4.0,8.1,50,0.00,CLR,,0.00,771.1,WeatherDisplay:10.37,2013-10-20 17:31:00,
2013-10-20 12:36:00,65.5,45.8,30.01,SSE,160,5.0,10.4,49,0.00,CLR,,0.00,771.1,WeatherDisplay:10.37,2013-10-20 17:36:00,
2013-10-20 12:41:00,66.1,46.4,30.01,SE,141,1.5,8.0,49,0.00,CLR,,0.00,775.5,WeatherDisplay:10.37,2013-10-20 17:41:00,
2013-10-20 12:46:00,66.3,46.6,30.01,SSE,167,8.9,16.1,49,0.00,CLR,,0.00,778.8,WeatherDisplay:10.37,2013-10-20 17:46:00,
2013-10-20 12:51:00,66.2,45.9,30.00,SSE,158,5.1,9.2,48,0.00,CLR,,0.00,783.2,WeatherDisplay:10.37,2013-10-20 17:51:00,
2013-10-20 12:56:00,66.2,45.4,30.00,SE,140,3.4,6.9,47,0.00,CLR,,0.00,839.3,WeatherDisplay:10.37,2013-10-20 17:56:00,
2013-10-20 13:01:00,65.9,43.9,30.00,South,188,7.9,11.5,45,0.00,CLR,,0.00,707.3,WeatherDisplay:10.37,2013-10-20 18:01:00,
2013-10-20 13:06:00,66.3,45.5,30.00,SSE,156,6.8,10.4,47,0.00,CLR,,0.00,785.4,WeatherDisplay:10.37,2013-10-20 18:06:00,
2013-10-20 13:11:00,66.5,45.6,29.99,SE,136,3.5,8.1,47,0.00,CLR,,0.00,783.2,WeatherDisplay:10.37,2013-10-20 18:11:00,
2013-10-20 13:16:00,67.6,46.1,29.99,SE,137,6.6,11.5,46,0.00,CLR,,0.00,778.8,WeatherDisplay:10.37,2013-10-20 18:16:00,
2013-10-20 13:21:00,67.3,45.8,29.98,SSE,163,5.0,7.0,46,0.00,CLR,,0.00,786.5,WeatherDisplay:10.37,2013-10-20 18:21:00,
2013-10-20 13:26:00,68.0,45.9,29.98,SSE,151,8.0,17.3,45,0.00,CLR,,0.00,788.7,WeatherDisplay:10.37,2013-10-20 18:26:00,
2013-10-20 13:31:00,68.1,45.4,29.97,SSE,156,8.0,15.0,44,0.00,CLR,,0.00,786.5,WeatherDisplay:10.37,2013-10-20 18:31:00,
2013-10-20 13:36:00,68.5,46.3,29.97,SSE,158,4.8,8.0,45,0.00,CLR,,0.00,788.7,WeatherDisplay:10.37,2013-10-20 18:36:00,
2013-10-20 13:41:00,68.4,44.4,29.97,SE,145,10.3,18.4,42,0.00,CLR,,0.00,783.2,WeatherDisplay:10.37,2013-10-20 18:41:00,
2013-10-20 13:46:00,68.2,44.8,29.96,SSW,201,6.0,11.5,43,0.00,CLR,,0.00,777.7,WeatherDisplay:10.37,2013-10-20 18:46:00,
2013-10-20 13:51:00,68.2,45.4,29.96,South,177,4.1,5.8,44,0.00,CLR,,0.00,777.7,WeatherDisplay:10.37,2013-10-20 18:51:00,
2013-10-20 13:56:00,69.2,46.4,29.95,SE,133,5.8,11.5,44,0.00,CLR,,0.00,773.3,WeatherDisplay:10.37,2013-10-20 18:56:00,
2013-10-20 14:01:00,68.9,44.9,29.95,South,191,7.4,14.0,42,0.00,CLR,,0.00,771.1,WeatherDisplay:10.37,2013-10-20 19:01:00,
2013-10-20 14:06:00,68.8,46.0,29.95,SSE,164,2.0,5.0,44,0.00,CLR,,0.00,765.6,WeatherDisplay:10.37,2013-10-20 19:06:00,
2013-10-20 14:11:00,68.7,44.7,29.94,SSE,156,7.1,13.8,42,0.00,CLR,,0.00,762.3,WeatherDisplay:10.37,2013-10-20 19:11:00,
2013-10-20 14:16:00,69.5,46.0,29.94,SSE,152,4.5,10.4,43,0.00,CLR,,0.00,750.2,WeatherDisplay:10.37,2013-10-20 19:16:00,
2013-10-20 14:21:00,69.4,45.3,29.94,SSE,155,6.6,11.5,42,0.00,CLR,,0.00,748.0,WeatherDisplay:10.37,2013-10-20 19:21:00,
2013-10-20 14:26:00,70.3,46.7,29.93,SE,125,6.6,12.7,43,0.00,CLR,,0.00,744.7,WeatherDisplay:10.37,2013-10-20 19:26:00,
2013-10-20 14:31:00,70.2,45.4,29.93,SSE,156,8.2,13.8,41,0.00,CLR,,0.00,738.1,WeatherDisplay:10.37,2013-10-20 19:31:00,
2013-10-20 14:36:00,69.9,45.1,29.92,SSE,149,6.3,11.5,41,0.00,CLR,,0.00,730.4,WeatherDisplay:10.37,2013-10-20 19:36:00,
2013-10-20 14:41:00,70.4,45.6,29.92,SSE,148,8.7,12.7,41,0.00,CLR,,0.00,724.9,WeatherDisplay:10.37,2013-10-20 19:41:00,
2013-10-20 14:46:00,70.0,46.5,29.92,SE,139,7.6,13.0,43,0.00,CLR,,0.00,719.4,WeatherDisplay:10.37,2013-10-20 19:46:00,
2013-10-20 14:51:00,70.3,45.5,29.92,SSE,156,6.9,15.0,41,0.00,CLR,,0.00,707.3,WeatherDisplay:10.37,2013-10-20 19:51:00,
2013-10-20 14:56:00,70.2,44.1,29.92,SSE,147,7.7,13.8,39,0.00,CLR,,0.00,698.5,WeatherDisplay:10.37,2013-10-20 19:56:00,
2013-10-20 15:01:00,70.1,44.6,29.91,SSE,163,5.7,9.2,40,0.00,CLR,,0.00,691.9,WeatherDisplay:10.37,2013-10-20 20:01:00,
2013-10-20 15:06:00,70.3,44.8,29.91,SSE,154,8.0,12.0,40,0.00,CLR,,0.00,680.9,WeatherDisplay:10.37,2013-10-20 20:06:00,
2013-10-20 15:11:00,70.5,44.3,29.91,SSE,151,4.7,9.2,39,0.00,CLR,,0.00,673.2,WeatherDisplay:10.37,2013-10-20 20:11:00,
2013-10-20 15:16:00,70.6,45.1,29.91,SSE,160,3.9,6.9,40,0.00,CLR,,0.00,657.8,WeatherDisplay:10.37,2013-10-20 20:16:00,
2013-10-20 15:21:00,70.6,44.4,29.91,SSE,158,8.1,16.1,39,0.00,CLR,,0.00,651.2,WeatherDisplay:10.37,2013-10-20 20:21:00,
2013-10-20 15:26:00,70.3,44.2,29.91,SSE,158,6.9,10.4,39,0.00,CLR,,0.00,638.0,WeatherDisplay:10.37,2013-10-20 20:26:00,
2013-10-20 15:31:00,70.2,42.7,29.91,South,183,4.2,9.2,37,0.00,CLR,,0.00,628.1,WeatherDisplay:10.37,2013-10-20 20:31:00,
2013-10-20 15:36:00,70.1,43.3,29.91,SSE,156,9.0,15.0,38,0.00,CLR,,0.00,617.1,WeatherDisplay:10.37,2013-10-20 20:36:00,
2013-10-20 15:41:00,70.4,43.6,29.91,SSE,154,5.9,11.5,38,0.00,CLR,,0.00,607.2,WeatherDisplay:10.37,2013-10-20 20:41:00,
2013-10-20 15:46:00,70.3,42.1,29.91,SSE,154,6.6,17.3,36,0.00,CLR,,0.00,102.3,WeatherDisplay:10.37,2013-10-20 20:46:00,
2013-10-20 15:51:00,70.1,41.9,29.90,South,176,8.4,20.7,36,0.00,CLR,,0.00,99.0,WeatherDisplay:10.37,2013-10-20 20:51:00,
2013-10-20 15:56:00,70.0,43.2,29.90,SSE,157,5.6,11.5,38,0.00,CLR,,0.00,59.4,WeatherDisplay:10.37,2013-10-20 20:56:00,
2013-10-20 16:01:00,70.4,42.9,29.90,SSE,156,4.3,10.4,37,0.00,CLR,,0.00,58.3,WeatherDisplay:10.37,2013-10-20 21:01:00,
2013-10-20 16:06:00,70.4,44.3,29.90,SSW,192,7.5,12.7,39,0.00,CLR,,0.00,56.1,WeatherDisplay:10.37,2013-10-20 21:06:00,
2013-10-20 16:11:00,69.9,43.1,29.90,SSE,153,5.3,11.5,38,0.00,CLR,,0.00,56.1,WeatherDisplay:10.37,2013-10-20 21:11:00,
2013-10-20 16:16:00,69.7,42.9,29.90,South,183,6.6,9.2,38,0.00,CLR,,0.00,53.9,WeatherDisplay:10.37,2013-10-20 21:16:00,
2013-10-20 16:21:00,69.9,43.8,29.90,SSE,159,6.8,15.0,39,0.00,CLR,,0.00,53.9,WeatherDisplay:10.37,2013-10-20 21:21:00,
2013-10-20 16:26:00,69.8,42.3,29.90,South,174,5.2,8.1,37,0.00,CLR,,0.00,53.9,WeatherDisplay:10.37,2013-10-20 21:26:00,
2013-10-20 16:31:00,69.3,41.9,29.90,South,170,4.6,8.1,37,0.00,CLR,,0.00,51.7,WeatherDisplay:10.37,2013-10-20 21:31:00,
2013-10-20 16:36:00,69.4,42.0,29.90,SSE,147,6.0,11.5,37,0.00,CLR,,0.00,51.7,WeatherDisplay:10.37,2013-10-20 21:36:00,
2013-10-20 16:41:00,69.4,42.7,29.90,SSE,164,2.1,5.8,38,0.00,CLR,,0.00,51.7,WeatherDisplay:10.37,2013-10-20 21:41:00,
2013-10-20 16:46:00,69.5,43.4,29.90,South,187,5.1,9.2,39,0.00,CLR,,0.00,137.5,WeatherDisplay:10.37,2013-10-20 21:46:00,
2013-10-20 16:51:00,69.4,42.7,29.90,SSE,157,4.0,6.0,38,0.00,CLR,,0.00,53.9,WeatherDisplay:10.37,2013-10-20 21:51:00,
2013-10-20 16:56:00,69.3,42.6,29.90,SSE,151,7.4,11.5,38,0.00,CLR,,0.00,50.6,WeatherDisplay:10.37,2013-10-20 21:56:00,
2013-10-20 17:01:00,69.4,43.4,29.90,SSE,158,7.4,13.8,39,0.00,CLR,,0.00,48.4,WeatherDisplay:10.37,2013-10-20 22:01:00,
2013-10-20 17:06:00,69.1,43.1,29.90,SSE,158,4.0,11.5,39,0.00,CLR,,0.00,59.4,WeatherDisplay:10.37,2013-10-20 22:06:00,
2013-10-20 17:11:00,68.8,42.8,29.90,South,188,4.9,10.0,39,0.00,CLR,,0.00,81.4,WeatherDisplay:10.37,2013-10-20 22:11:00,
2013-10-20 17:16:00,68.7,44.0,29.89,South,183,3.9,8.1,41,0.00,CLR,,0.00,46.2,WeatherDisplay:10.37,2013-10-20 22:16:00,
2013-10-20 17:21:00,68.6,43.3,29.89,South,182,4.3,6.9,40,0.00,CLR,,0.00,44.0,WeatherDisplay:10.37,2013-10-20 22:21:00,
2013-10-20 17:26:00,68.5,43.9,29.89,SSE,162,1.5,5.8,41,0.00,CLR,,0.00,42.9,WeatherDisplay:10.37,2013-10-20 22:26:00,
2013-10-20 17:31:00,68.3,44.3,29.89,South,172,5.3,8.1,42,0.00,CLR,,0.00,42.9,WeatherDisplay:10.37,2013-10-20 22:31:00,
2013-10-20 17:36:00,67.9,43.3,29.89,South,183,6.7,11.5,41,0.00,CLR,,0.00,44.0,WeatherDisplay:10.37,2013-10-20 22:36:00,
2013-10-20 17:41:00,67.6,43.7,29.89,South,172,2.8,6.0,42,0.00,CLR,,0.00,36.3,WeatherDisplay:10.37,2013-10-20 22:41:00,
2013-10-20 17:46:00,67.5,44.2,29.89,SSE,167,4.5,9.2,43,0.00,CLR,,0.00,35.2,WeatherDisplay:10.37,2013-10-20 22:46:00,
2013-10-20 17:51:00,67.2,43.9,29.89,SSE,157,8.1,11.5,43,0.00,CLR,,0.00,33.0,WeatherDisplay:10.37,2013-10-20 22:51:00,
2013-10-20 17:56:00,67.0,44.9,29.89,SSW,195,1.3,3.5,45,0.00,CLR,,0.00,30.8,WeatherDisplay:10.37,2013-10-20 22:56:00,
2013-10-20 18:01:00,66.6,45.2,29.89,SSE,160,4.4,7.0,46,0.00,CLR,,0.00,28.6,WeatherDisplay:10.37,2013-10-20 23:01:00,
2013-10-20 18:06:00,66.3,44.9,29.89,SSE,154,5.0,11.5,46,0.00,CLR,,0.00,25.3,WeatherDisplay:10.37,2013-10-20 23:06:00,
2013-10-20 18:11:00,66.1,44.7,29.89,SE,145,3.4,8.1,46,0.00,CLR,,0.00,23.1,WeatherDisplay:10.37,2013-10-20 23:11:00,
2013-10-20 18:16:00,65.8,45.0,29.89,SSE,155,3.9,8.1,47,0.00,CLR,,0.00,20.9,WeatherDisplay:10.37,2013-10-20 23:16:00,
2013-10-20 18:21:00,65.6,45.4,29.89,SSE,152,4.3,8.1,48,0.00,CLR,,0.00,19.8,WeatherDisplay:10.37,2013-10-20 23:21:00,
2013-10-20 18:26:00,65.0,45.4,29.89,SSE,152,0.7,2.3,49,0.00,CLR,,0.00,15.4,WeatherDisplay:10.37,2013-10-20 23:26:00,
2013-10-20 18:31:00,64.2,45.7,29.89,SSE,152,0.1,2.3,51,0.00,CLR,,0.00,13.2,WeatherDisplay:10.37,2013-10-20 23:31:00,
2013-10-20 18:36:00,63.8,45.8,29.89,SSE,152,3.2,8.1,52,0.00,CLR,,0.00,9.9,WeatherDisplay:10.37,2013-10-20 23:36:00,
2013-10-20 18:41:00,63.5,46.1,29.90,SSE,152,2.4,8.0,53,0.00,CLR,,0.00,7.7,WeatherDisplay:10.37,2013-10-20 23:41:00,
2013-10-20 18:46:00,63.5,45.6,29.90,SSE,152,2.4,6.0,52,0.00,CLR,,0.00,5.5,WeatherDisplay:10.37,2013-10-20 23:46:00,
2013-10-20 18:51:00,63.2,45.3,29.90,SSE,152,1.5,4.6,52,0.00,CLR,,0.00,0.0,WeatherDisplay:10.37,2013-10-20 23:51:00,
2013-10-20 18:56:00,62.9,45.5,29.90,SSE,152,1.9,5.0,53,0.00,CLR,,0.00,0.0,WeatherDisplay:10.37,2013-10-20 23:56:00,
2013-10-20 19:01:00,62.6,45.7,29.90,SSE,152,2.7,4.6,54,0.00,CLR,,0.00,0.0,WeatherDisplay:10.37,2013-10-21 00:01:00,
2013-10-20 19:06:00,62.4,45.5,29.90,SSE,152,3.3,5.0,54,0.00,CLR,,0.00,0.0,WeatherDisplay:10.37,2013-10-21 00:06:00,
2013-10-20 19:11:00,62.0,45.6,29.90,SSE,153,5.2,6.9,55,0.00,CLR,,0.00,0.0,WeatherDisplay:10.37,2013-10-21 00:11:00,
2013-10-20 19:16:00,61.8,45.5,29.90,SSE,152,2.5,6.9,55,0.00,CLR,,0.00,0.0,WeatherDisplay:10.37,2013-10-21 00:16:00,
2013-10-20 19:21:00,61.4,45.6,29.91,SSE,152,1.4,3.5,56,0.00,CLR,,0.00,0.0,WeatherDisplay:10.37,2013-10-21 00:21:00,
2013-10-20 19:26:00,61.1,45.7,29.91,SSE,152,1.0,2.3,57,0.00,CLR,,0.00,0.0,WeatherDisplay:10.37,2013-10-21 00:26:00,
2013-10-20 19:31:00,60.9,46.0,29.91,SSE,152,0.7,2.3,58,0.00,CLR,,0.00,0.0,WeatherDisplay:10.37,2013-10-21 00:31:00,
2013-10-20 19:36:00,60.5,46.1,29.91,SSE,152,2.7,4.6,59,0.00,CLR,,0.00,0.0,WeatherDisplay:10.37,2013-10-21 00:36:00,
2013-10-20 19:41:00,60.2,46.3,29.92,SSE,152,1.4,2.3,60,0.00,CLR,,0.00,0.0,WeatherDisplay:10.37,2013-10-21 00:41:00,
2013-10-20 19:46:00,60.1,46.2,29.92,SSE,152,2.1,3.5,60,0.00,CLR,,0.00,0.0,WeatherDisplay:10.37,2013-10-21 00:46:00,
2013-10-20 19:51:00,59.8,45.9,29.92,SSE,152,1.4,3.5,60,0.00,CLR,,0.00,0.0,WeatherDisplay:10.37,2013-10-21 00:51:00,
2013-10-20 19:56:00,58.5,45.9,29.92,SSE,152,1.8,4.0,63,0.00,CLR,,0.00,0.0,WeatherDisplay:10.37,2013-10-21 00:56:00,
2013-10-20 20:01:00,58.4,45.8,29.92,SSE,152,2.0,3.5,63,0.00,CLR,,0.00,0.0,WeatherDisplay:10.37,2013-10-21 01:01:00,
2013-10-20 20:06:00,58.9,45.9,29.92,SSE,152,2.1,4.6,62,0.00,CLR,,0.00,0.0,WeatherDisplay:10.37,2013-10-21 01:06:00,
2013-10-20 20:11:00,58.9,45.9,29.92,SSE,152,1.7,5.0,62,0.00,CLR,,0.00,0.0,WeatherDisplay:10.37,2013-10-21 01:11:00,
2013-10-20 20:16:00,57.2,46.7,29.93,SSE,152,1.0,4.0,68,0.00,CLR,,0.00,0.0,WeatherDisplay:10.37,2013-10-21 01:16:00,
2013-10-20 20:21:00,56.1,46.4,29.93,SSE,152,0.4,2.3,70,0.00,CLR,,0.00,0.0,WeatherDisplay:10.37,2013-10-21 01:21:00,
2013-10-20 20:26:00,55.5,46.2,29.93,SSE,152,0.2,1.2,71,0.00,CLR,,0.00,0.0,WeatherDisplay:10.37,2013-10-21 01:26:00,
2013-10-20 20:31:00,55.3,45.7,29.93,SSE,152,0.3,1.2,70,0.00,CLR,,0.00,0.0,WeatherDisplay:10.37,2013-10-21 01:31:00,
2013-10-20 20:36:00,55.2,45.6,29.93,SSE,152,0.1,1.2,70,0.00,CLR,,0.00,0.0,WeatherDisplay:10.37,2013-10-21 01:36:00,
2013-10-20 20:41:00,55.0,45.4,29.93,SSE,152,1.6,3.5,70,0.00,CLR,,0.00,0.0,WeatherDisplay:10.37,2013-10-21 01:41:00,
2013-10-20 20:46:00,55.3,45.7,29.93,SSE,152,0.9,3.5,70,0.00,CLR,,0.00,0.0,WeatherDisplay:10.37,2013-10-21 01:46:00,
2013-10-20 20:51:00,54.9,46.4,29.94,SSE,152,1.2,2.3,73,0.00,CLR,,0.00,0.0,WeatherDisplay:10.37,2013-10-21 01:51:00,
2013-10-20 20:56:00,54.7,45.5,29.94,SSE,152,1.1,2.3,71,0.00,CLR,,0.00,0.0,WeatherDisplay:10.37,2013-10-21 01:56:00,
2013-10-20 21:01:00,56.1,44.9,29.94,SSE,152,3.0,3.5,66,0.00,CLR,,0.00,0.0,WeatherDisplay:10.37,2013-10-21 02:01:00,
2013-10-20 21:06:00,56.1,44.9,29.93,SSE,152,3.0,4.0,66,0.00,CLR,,0.00,0.0,WeatherDisplay:10.37,2013-10-21 02:06:00,
2013-10-20 21:11:00,55.8,45.0,29.94,SSE,152,3.4,5.8,67,0.00,CLR,,0.00,0.0,WeatherDisplay:10.37,2013-10-21 02:11:00,
2013-10-20 21:16:00,55.9,45.1,29.94,SSE,152,1.8,4.6,67,0.00,CLR,,0.00,0.0,WeatherDisplay:10.37,2013-10-21 02:16:00,
2013-10-20 21:21:00,55.8,45.4,29.94,SSE,152,2.3,3.5,68,0.00,CLR,,0.00,0.0,WeatherDisplay:10.37,2013-10-21 02:21:00,
2013-10-20 21:26:00,55.6,45.6,29.94,SSE,152,1.9,3.5,69,0.00,CLR,,0.00,0.0,WeatherDisplay:10.37,2013-10-21 02:26:00,
2013-10-20 21:31:00,55.4,45.8,29.94,SSE,152,2.0,3.5,70,0.00,CLR,,0.00,0.0,WeatherDisplay:10.37,2013-10-21 02:31:00,
2013-10-20 21:36:00,55.2,46.0,29.94,SSE,152,2.1,4.0,71,0.00,CLR,,0.00,0.0,WeatherDisplay:10.37,2013-10-21 02:36:00,
2013-10-20 21:41:00,55.0,46.1,29.94,SSE,152,3.6,5.8,72,0.00,CLR,,0.00,0.0,WeatherDisplay:10.37,2013-10-21 02:41:00,
2013-10-20 21:46:00,55.1,46.6,29.93,SSE,152,4.7,8.0,73,0.00,CLR,,0.00,0.0,WeatherDisplay:10.37,2013-10-21 02:46:00,
2013-10-20 21:51:00,55.6,46.7,29.93,SSE,152,5.3,6.9,72,0.00,CLR,,0.00,0.0,WeatherDisplay:10.37,2013-10-21 02:51:00,
2013-10-20 21:56:00,55.9,46.6,29.93,SSE,150,5.1,8.1,71,0.00,CLR,,0.00,0.0,WeatherDisplay:10.37,2013-10-21 02:56:00,
2013-10-20 22:01:00,56.1,46.4,29.93,SSE,152,4.8,9.2,70,0.00,CLR,,0.00,0.0,WeatherDisplay:10.37,2013-10-21 03:01:00,
2013-10-20 22:06:00,56.4,46.4,29.93,SSE,152,2.2,3.5,69,0.00,CLR,,0.00,0.0,WeatherDisplay:10.37,2013-10-21 03:06:00,
2013-10-20 22:11:00,56.4,46.4,29.93,SSE,152,1.3,5.0,69,0.00,CLR,,0.00,0.0,WeatherDisplay:10.37,2013-10-21 03:11:00,
2013-10-20 22:16:00,56.5,46.4,29.93,SSE,152,2.5,5.8,69,0.00,CLR,,0.00,0.0,WeatherDisplay:10.37,2013-10-21 03:16:00,
2013-10-20 22:21:00,56.4,46.4,29.94,SSE,152,2.4,4.6,69,0.00,CLR,,0.00,0.0,WeatherDisplay:10.37,2013-10-21 03:21:00,
2013-10-20 22:26:00,56.2,46.5,29.94,SSE,152,2.4,4.6,70,0.00,CLR,,0.00,0.0,WeatherDisplay:10.37,2013-10-21 03:26:00,
2013-10-20 22:31:00,56.1,46.4,29.94,SSE,152,4.1,5.8,70,0.00,CLR,,0.00,0.0,WeatherDisplay:10.37,2013-10-21 03:31:00,
2013-10-20 22:36:00,56.1,46.4,29.94,SSE,152,4.4,8.1,70,0.00,CLR,,0.00,0.0,WeatherDisplay:10.37,2013-10-21 03:36:00,
2013-10-20 22:41:00,56.1,46.8,29.94,SSE,152,3.0,4.0,71,0.00,CLR,,0.00,0.0,WeatherDisplay:10.37,2013-10-21 03:41:00,
2013-10-20 22:46:00,56.2,46.9,29.94,SSE,152,3.9,8.1,71,0.00,CLR,,0.00,0.0,WeatherDisplay:10.37,2013-10-21 03:46:00,
2013-10-20 22:51:00,56.4,47.1,29.94,SSE,152,3.4,5.8,71,0.00,CLR,,0.00,0.0,WeatherDisplay:10.37,2013-10-21 03:51:00,
2013-10-20 22:56:00,56.3,47.0,29.93,SSE,152,2.6,4.0,71,0.00,CLR,,0.00,0.0,WeatherDisplay:10.37,2013-10-21 03:56:00,
2013-10-20 23:01:00,56.3,47.0,29.94,SSE,152,4.2,6.9,71,0.00,CLR,,0.00,0.0,WeatherDisplay:10.37,2013-10-21 04:01:00,
2013-10-20 23:06:00,56.1,46.8,29.94,SSE,151,3.6,5.8,71,0.00,CLR,,0.00,0.0,WeatherDisplay:10.37,2013-10-21 04:06:00,
2013-10-20 23:11:00,56.0,47.1,29.93,SSE,151,2.0,4.6,72,0.00,CLR,,0.00,0.0,WeatherDisplay:10.37,2013-10-21 04:11:00,
2013-10-20 23:16:00,55.8,46.9,29.93,SSE,151,1.0,5.8,72,0.00,CLR,,0.00,0.0,WeatherDisplay:10.37,2013-10-21 04:16:00,
2013-10-20 23:21:00,55.7,46.8,29.93,SSE,151,3.0,4.6,72,0.00,CLR,,0.00,0.0,WeatherDisplay:10.37,2013-10-21 04:21:00,
2013-10-20 23:26:00,55.5,47.0,29.93,SSE,151,2.8,4.6,73,0.00,CLR,,0.00,0.0,WeatherDisplay:10.37,2013-10-21 04:26:00,
2013-10-20 23:31:00,55.5,47.0,29.93,SSE,151,3.5,6.9,73,0.00,CLR,,0.00,0.0,WeatherDisplay:10.37,2013-10-21 04:31:00,
2013-10-20 23:36:00,55.4,46.9,29.93,SSE,151,0.8,5.8,73,0.00,CLR,,0.00,0.0,WeatherDisplay:10.37,2013-10-21 04:36:00,
2013-10-20 23:41:00,55.2,47.1,29.93,SSE,151,2.0,3.5,74,0.00,CLR,,0.00,0.0,WeatherDisplay:10.37,2013-10-21 04:41:00,
2013-10-20 23:46:00,55.0,46.9,29.93,SSE,151,2.3,2.3,74,0.00,CLR,,0.00,0.0,WeatherDisplay:10.37,2013-10-21 04:46:00,
2013-10-20 23:51:00,54.8,47.0,29.93,SSE,151,2.1,4.6,75,0.00,CLR,,0.00,0.0,WeatherDisplay:10.37,2013-10-21 04:51:00,
2013-10-20 23:56:00,54.6,46.8,29.93,SSE,151,1.4,4.0,75,0.00,CLR,,0.00,0.0,WeatherDisplay:10.37,2013-10-21 04:56:00,